This is the latest recevied weather packets stored in our database for station/object N9XRG. If no packets are shown the sender has not sent any weather packets the latest 10 day(s).
| Time | Temp. | Humidity | Pressure | Rain* | Wind** | Luminosity | Snow |
|---|---|---|---|---|---|---|---|
| 1777686148 | 5.56° C | 60% | 1017.5 hPa | 0 mm | - | 0 W/m² | - |
| 1777685845 | 5.56° C | 59% | 1017 hPa | 0 mm | - | 0 W/m² | - |
| 1777685540 | 5.56° C | 59% | 1017.1 hPa | 0 mm | - | 0 W/m² | - |
| 1777685237 | 6.11° C | 58% | 1016.9 hPa | 0 mm | - | 0 W/m² | - |
| 1777684935 | 6.11° C | 59% | 1016.8 hPa | 0 mm | - | 0 W/m² | - |
| 1777684632 | 6.11° C | 58% | 1016.9 hPa | 0 mm | - | 0 W/m² | - |
| 1777684327 | 6.11° C | 57% | 1016.8 hPa | 0 mm | - | 0 W/m² | - |
| 1777684026 | 6.11° C | 58% | 1016.7 hPa | 0 mm | - | 0 W/m² | - |
| 1777683721 | 6.11° C | 58% | 1016.7 hPa | 0 mm | - | 0 W/m² | - |
| 1777683419 | 6.67° C | 57% | 1016.5 hPa | 0 mm | - | 0 W/m² | - |
| 1777683116 | 6.67° C | 57% | 1016.2 hPa | 0 mm | - | 0 W/m² | - |
| 1777682812 | 6.67° C | 55% | 1016.3 hPa | 0 mm | - | 1 W/m² | - |
| 1777682509 | 6.67° C | 55% | 1016.4 hPa | 0 mm | - | 2 W/m² | - |
| 1777682207 | 7.22° C | 54% | 1016.3 hPa | 0 mm | - | 4 W/m² | - |
| 1777681904 | 7.22° C | 55% | 1016.2 hPa | 0 mm | - | 6 W/m² | - |
| 1777681600 | 7.22° C | 55% | 1016.1 hPa | 0 mm | - | 9 W/m² | - |
| 1777681298 | 7.78° C | 54% | 1016.3 hPa | 0 mm | - | 12 W/m² | - |
| 1777680995 | 7.78° C | 52% | 1016.2 hPa | 0 mm | - | 15 W/m² | - |
| 1777680692 | 7.78° C | 53% | 1016.1 hPa | 0 mm | - | 18 W/m² | - |
| 1777680390 | 7.78° C | 52% | 1016.1 hPa | 0 mm | - | 21 W/m² | - |
| 1777680087 | 7.78° C | 50% | 1016.2 hPa | 0 mm | - | 24 W/m² | - |
| 1777679783 | 8.33° C | 53% | 1015.9 hPa | 0 mm | - | 26 W/m² | - |
| 1777679480 | 8.33° C | 49% | 1015.9 hPa | 0 mm | - | 28 W/m² | - |
| 1777679175 | 8.33° C | 50% | 1015.9 hPa | 0 mm | - | 31 W/m² | - |
| 1777678873 | 8.89° C | 49% | 1015.9 hPa | 0 mm | - | 33 W/m² | - |
* Rain latest hour (hover to see other rain measurements)
** Current wind speed in m/s (hover to see current wind gust speed)